Tracking 25734 objects as of 27-May-2022
HD Live streaming from Space Station
objects crossing your sky now

COSMOS 1823 DEB

Track COSMOS 1823 DEB now!
10-day predictions


NORAD ID: 18757
Int'l Code: 1987-020AJ
Perigee: 1,149.7 km
Apogee: 1,244.0 km
Inclination: 73.7 °
Period: 109.2 minutes
Semi major axis: 7567 km
RCS: 0.0664 m2 (small)
Launch date: February 20, 1987
Source: Commonwealth of Independent States (former USSR) (CIS)
Launch site: PLESETSK MISSILE AND SPACE COMPLEX (PKMTR)

Note: This is SATELLITE DEBRIS
aabbcc
Your satellite tracking list
Your tracking list is empty




NASA's NSSDC Master Catalog

Two Line Element Set (TLE):
1 18757U 87020AJ  22147.05938850  .00005838  00000-0  14697-1 0  9991
2 18757  73.7190  44.2947 0062304 163.4410 310.8032 13.18686176603071
Source of the keplerian elements: AFSPC